, LA

(GMT )
Venice

Weather History for K1B7 - April, 2014

Change the Weather History Date:

Sunday, April 6, 2014

  Actual Average Record
Temperature  
Mean Temperature 70 °F -  
Max Temperature 77 °F - - ()
Min Temperature 64 °F - - ()
Cooling Degree Days 6    
Growing Degree Days 20 (Base 50)    
Moisture  
Dew Point 70 °F    
Average Humidity 95    
Maximum Humidity 100    
Minimum Humidity 89    
Precipitation  
Precipitation 0.00 in - - ()
Sea Level Pressure  
Sea Level Pressure 29.85 in    
Wind  
Wind Speed 8 mph (SE)    
Max Wind Speed 21 mph    
Max Gust Speed 24 mph    
Visibility 5 miles    
Events Fog    
Averages and records for this station are not official NWS values.
T = Trace of Precipitation, MM = Missing Value Source: NWS Daily Summary

Daily Weather History Graph

Daily Weather History Graph

Search for Another Location

Airport or City:

Trip Planner

Search our weather history database for the weather conditions in past years. The results will help you decide how hot, cold, wet, or windy it might be!

Date:

Astronomy

Apr. 06, 2014 Rise Set
Actual Time 6:41 AM CDT 7:19 PM CDT
Civil Twilight 6:17 AM CDT 7:43 PM CDT
Nautical Twilight 5:49 AM CDT 8:11 PM CDT
Astronomical Twilight 5:20 AM CDT 8:40 PM CDT
Moon 11:56 AM CDT (4/6) 1:00 AM CDT (4/6)
Length of Visible Light 13h 25m
Length of Day
12h 37m
Waxing Crescent, 44% of the Moon is Illuminated
Apr 6
Waxing Crescent
Apr 7
First Quarter
Apr 15
Full
Apr 22
Last Quarter
Apr 29
New

Hourly Weather History & Observations

Time (CDT) Temp. Dew Point Humidity Pressure Visibility Wind Dir Wind Speed Gust Speed Precip Events Conditions
5:05 AM 64.4 °F 64.4 °F 100% 29.87 in 0.2 mi East 3.5 mph - N/A Fog Fog
5:28 AM 64.4 °F 64.4 °F 100% 29.87 in 0.0 mi East 4.6 mph - N/A Fog Fog
5:56 AM 64.4 °F 64.4 °F 100% 29.88 in 0.0 mi East 3.5 mph - N/A Fog Fog
6:14 AM 64.4 °F 64.4 °F 100% 29.89 in 0.0 mi East 3.5 mph - N/A Fog Fog
6:30 AM 64.4 °F 64.4 °F 100% 29.89 in 0.2 mi ESE 4.6 mph - N/A Fog Fog
6:59 AM 64.4 °F 64.4 °F 100% 29.90 in 0.2 mi ESE 4.6 mph - N/A Fog Fog
7:25 AM 64.4 °F 64.4 °F 100% 29.90 in 0.2 mi ESE 5.8 mph - N/A Fog Fog
7:46 AM 64.4 °F 64.4 °F 100% 29.92 in 0.2 mi ESE 4.6 mph - N/A Fog Fog
8:10 AM 66.2 °F 66.2 °F 100% 29.92 in 0.2 mi Variable 2.3 mph - N/A Fog Fog
8:45 AM 68.0 °F 68.0 °F 100% 29.91 in 2.0 mi SE 8.1 mph - N/A   Mostly Cloudy
9:15 AM 68.0 °F 68.0 °F 100% 29.91 in 2.0 mi SSE 8.1 mph - N/A   Mostly Cloudy
9:36 AM 69.8 °F 69.8 °F 100% 29.89 in 2.0 mi SE 11.5 mph - N/A   Mostly Cloudy
9:45 AM 68.0 °F 68.0 °F 100% 29.90 in 2.0 mi ESE 6.9 mph - N/A   Mostly Cloudy
10:17 AM 73.4 °F 73.4 °F 100% 29.89 in 3.0 mi SE 9.2 mph - N/A   Mostly Cloudy
10:33 AM 75.2 °F 75.2 °F 100% 29.89 in 6.0 mi SSE 10.4 mph - N/A   Overcast
10:48 AM 75.2 °F 75.2 °F 100% 29.88 in 7.0 mi SE 11.5 mph - N/A   Overcast
11:17 AM 75.2 °F 73.4 °F 94% 29.87 in 7.0 mi SE 10.4 mph - N/A   Overcast
11:38 AM 75.2 °F 73.4 °F 94% 29.86 in 8.0 mi SE 17.3 mph - N/A   Overcast
11:55 AM 77.0 °F 73.4 °F 89% 29.85 in 8.0 mi SSE 12.7 mph - N/A   Overcast
12:40 PM 75.2 °F 73.4 °F 94% 29.84 in 8.0 mi SSE 17.3 mph - N/A   Partly Cloudy
12:56 PM 75.2 °F 73.4 °F 94% 29.84 in 8.0 mi South 11.5 mph - N/A   Mostly Cloudy
1:17 PM 77.0 °F 73.4 °F 89% 29.83 in 8.0 mi SSE 13.8 mph - N/A   Mostly Cloudy
1:45 PM 77.0 °F 73.4 °F 89% 29.81 in 9.0 mi South 9.2 mph - N/A   Overcast
2:12 PM 77.0 °F 73.4 °F 89% 29.81 in 9.0 mi SSE 17.3 mph - N/A   Overcast
2:50 PM 77.0 °F 73.4 °F 89% 29.79 in 8.0 mi SSE 15.0 mph - N/A   Mostly Cloudy
3:22 PM 77.0 °F 73.4 °F 89% 29.77 in 8.0 mi SSE 12.7 mph - N/A   Mostly Cloudy
3:45 PM 77.0 °F 73.4 °F 89% 29.76 in 8.0 mi SSE 18.4 mph - N/A   Overcast
4:30 PM 77.0 °F 73.4 °F 89% 29.74 in 8.0 mi SSE 18.4 mph 24.2 mph N/A   Mostly Cloudy
4:45 PM 77.0 °F 73.4 °F 89% 29.74 in 8.0 mi SSE 20.7 mph 24.2 mph N/A   Scattered Clouds
5:00 PM 77.0 °F 73.4 °F 89% 29.74 in 8.0 mi SSE 15.0 mph 19.6 mph N/A   Partly Cloudy
5:50 PM 75.2 °F 73.4 °F 94% 29.74 in 8.0 mi SSE 11.5 mph - N/A   Haze